Date String (YYYY-MM-DD hh:mm:ss) UTC,Instrument flags,absolute air pressure of the measurement (hPa),sample flow rate (lpm),inlet stack bypass flow (lpm),air temperature of the measurement (°C),ambient temperature measured by the external sensor (°C),aerosol sample conditioner tube jacket temperature (°C),OPC LED temperature (°C),internal box temperature (°C),relative humidity of the measurement (%),span deviation,mass concentration of particles derived from Lorenz-Mie calculation of OPC scattering (μg/m³),mass concentration of particles derived from Lorenz-Mie calculation of OPC scattering (μg/m³),mass concentration of particles derived from Lorenz-Mie calculation of OPC scattering (μg/m³)
DateTimeUTC,F1_M11,P_M11,Q1_M11,Q2_M11,T1_M11,T2_M11,T3_M11,T4_M11,T5_M11,U1_M11,ZSPAN_M11,X0_M11,X2_M11,X1_M11
2024-04-15 05:00:00,SystemResetWarning,0821.7,4.99,000.00,025.3,024.6,000.0,033.6,027.2,008.9,0000.0,0011.15,0003.69,0002.45
2024-04-15 05:01:00,SystemResetWarning,0821.7,4.99,000.00,025.3,024.7,000.0,033.6,027.2,008.7,0000.0,0011.06,0003.67,0002.45
2024-04-15 05:02:00,SystemResetWarning,0821.6,5.00,000.00,025.4,024.7,000.0,033.6,027.3,008.6,0000.0,0010.61,0003.66,0002.43
2024-04-15 05:03:00,SystemResetWarning,0821.6,5.00,000.00,025.4,024.8,000.0,033.6,027.4,008.6,0000.0,0010.00,0003.65,0002.43
2024-04-15 05:04:00,SystemResetWarning,0821.7,5.01,000.00,025.5,024.9,000.0,033.7,027.4,008.2,0000.0,0009.72,0003.64,0002.41
2024-04-15 05:05:00,SystemResetWarning,0821.6,5.00,000.00,025.5,024.9,000.0,033.7,027.4,008.2,0000.0,0009.81,0003.62,0002.41
2024-04-15 05:06:00,SystemResetWarning,0821.6,5.01,000.00,025.5,025.0,000.0,033.7,027.5,008.3,0000.0,0010.29,0003.60,0002.39
2024-04-15 05:07:00,SystemResetWarning,0821.7,5.00,000.00,025.6,025.0,000.0,033.8,027.5,008.3,0000.0,0010.29,0003.54,0002.39
2024-04-15 05:08:00,SystemResetWarning,0821.7,4.98,000.00,025.6,025.1,000.0,033.8,027.5,008.2,0000.0,0008.82,0003.49,0002.39
2024-04-15 05:09:00,SystemResetWarning,0821.6,5.00,000.00,025.7,025.1,000.0,033.8,027.6,008.4,0000.0,0008.96,0003.50,0002.39
2024-04-15 05:10:00,SystemResetWarning,0821.6,5.00,000.00,025.7,025.1,000.0,033.9,027.6,008.3,0000.0,0009.36,0003.48,0002.39
2024-04-15 05:11:00,SystemResetWarning,0821.6,5.00,000.00,025.7,025.1,000.0,033.9,027.6,008.3,0000.0,0009.95,0003.45,0002.37
2024-04-15 05:12:00,SystemResetWarning,0821.7,5.00,000.00,025.8,025.2,000.0,033.9,027.6,008.3,0000.0,0010.88,0003.44,0002.36
2024-04-15 05:13:00,SystemResetWarning,0821.6,5.01,000.00,025.8,025.2,000.0,033.9,027.7,008.3,0000.0,0010.73,0003.43,0002.36
2024-04-15 05:14:00,SystemResetWarning,0821.6,5.00,000.00,025.8,025.2,000.0,034.0,027.7,008.5,0000.0,0010.67,0003.40,0002.35
2024-04-15 05:15:00,SystemResetWarning,0821.6,5.00,000.00,025.8,025.2,000.0,034.0,027.7,008.7,0000.0,0011.59,0003.41,0002.35
2024-04-15 05:16:00,SystemResetWarning,0821.6,5.00,000.00,025.9,025.3,000.0,034.0,027.7,008.9,0000.0,0011.89,0003.44,0002.36
2024-04-15 05:17:00,SystemResetWarning,0821.6,5.00,000.00,025.9,025.3,000.0,034.1,027.8,009.1,0000.0,0011.12,0003.44,0002.38
2024-04-15 05:18:00,SystemResetWarning,0821.6,4.99,000.00,025.9,025.3,000.0,034.1,027.8,008.9,0000.0,0010.68,0003.47,0002.38
2024-04-15 05:19:00,SystemResetWarning,0821.6,5.00,000.00,025.9,025.3,000.0,034.1,027.8,008.6,0000.0,0010.85,0003.48,0002.38
2024-04-15 05:20:00,SystemResetWarning,0821.6,5.00,000.00,026.0,025.3,000.0,034.1,027.8,008.6,0000.0,0011.24,0003.48,0002.36
2024-04-15 05:21:00,SystemResetWarning,0821.7,4.98,000.00,025.8,023.9,000.0,034.2,026.9,008.9,0000.0,0010.84,0003.50,0002.35
2024-04-15 05:22:00,SystemResetWarning,0822.0,5.02,000.00,025.3,022.1,000.0,034.2,026.0,009.3,0000.0,0010.42,0003.53,0002.36
2024-04-15 05:23:00,SystemResetWarning,0822.0,5.00,000.00,025.1,022.1,000.0,034.1,025.7,009.3,0000.0,0009.64,0003.54,0002.38
2024-04-15 05:24:00,SystemResetWarning,0821.9,4.99,000.00,025.0,022.4,000.0,033.9,026.0,009.4,0000.0,0009.53,0003.56,0002.37
2024-04-15 05:25:00,SystemResetWarning,0822.0,5.01,000.00,025.0,022.8,000.0,033.8,026.3,009.6,0000.0,0009.74,0003.63,0002.39
2024-04-15 05:26:00,SystemResetWarning,0821.8,5.00,000.00,025.0,023.1,000.0,033.8,026.5,009.4,0000.0,0008.71,0003.60,0002.40
2024-04-15 05:27:00,SystemResetWarning,0821.9,5.00,000.00,025.0,023.4,000.0,033.7,026.7,009.6,0000.0,0008.41,0003.58,0002.38
2024-04-15 05:28:00,SystemResetWarning,0821.7,5.00,000.00,025.1,023.7,000.0,033.7,026.8,009.2,0000.0,0008.48,0003.60,0002.38
2024-04-15 05:29:00,SystemResetWarning,0821.9,5.00,000.00,025.1,023.9,000.0,033.6,026.8,009.2,0000.0,0008.53,0003.59,0002.38
2024-04-15 05:30:00,SystemResetWarning,0821.6,5.01,000.00,025.1,024.1,000.0,033.6,026.9,009.5,0000.0,0008.34,0003.53,0002.36
2024-04-15 05:31:00,SystemResetWarning,0821.9,5.00,000.00,025.2,024.2,000.0,033.6,027.0,009.4,0000.0,0007.85,0003.52,0002.38
2024-04-15 05:32:00,SystemResetWarning,0821.4,5.00,000.00,025.2,024.3,000.0,033.6,027.1,009.3,0000.0,0008.08,0003.54,0002.39
2024-04-15 05:33:00,SystemResetWarning,0822.0,5.00,000.00,025.3,024.4,000.0,033.6,027.1,009.5,0000.0,0008.05,0003.52,0002.38
2024-04-15 05:34:00,SystemResetWarning,0821.9,5.00,000.00,025.3,024.5,000.0,033.6,027.1,009.4,0000.0,0008.29,0003.51,0002.35
2024-04-15 05:35:00,SystemResetWarning,0821.6,5.00,000.00,025.3,024.6,000.0,033.6,027.2,009.1,0000.0,0008.87,0003.50,0002.36
2024-04-15 05:36:00,SystemResetWarning,0821.6,4.99,000.00,025.4,024.7,000.0,033.7,027.2,009.2,0000.0,0009.85,0003.46,0002.34
2024-04-15 05:37:00,SystemResetWarning,0821.6,4.99,000.00,025.4,024.8,000.0,033.7,027.3,009.4,0000.0,0010.36,0003.43,0002.32
2024-04-15 05:38:00,SystemResetWarning,0821.6,5.01,000.00,025.5,024.8,000.0,033.7,027.3,009.2,0000.0,0010.29,0003.42,0002.31
2024-04-15 05:39:00,SystemResetWarning,0821.5,5.02,000.00,025.5,024.9,000.0,033.7,027.4,009.1,0000.0,0010.21,0003.39,0002.29
2024-04-15 05:40:00,SystemResetWarning,0821.4,5.00,000.00,025.5,024.9,000.0,033.7,027.4,009.2,0000.0,0010.14,0003.38,0002.29
2024-04-15 05:41:00,SystemResetWarning,0821.3,4.98,000.00,025.6,025.0,000.0,033.8,027.4,009.2,0000.0,0010.10,0003.40,0002.31
2024-04-15 05:42:00,SystemResetWarning,0821.4,5.00,000.00,025.6,025.0,000.0,033.8,027.5,008.9,0000.0,0009.98,0003.37,0002.27
2024-04-15 05:43:00,SystemResetWarning,0821.3,5.01,000.00,025.6,025.0,000.0,033.8,027.5,008.8,0000.0,0009.62,0003.33,0002.27
2024-04-15 05:44:00,SystemResetWarning,0821.3,5.01,000.00,025.7,025.1,000.0,033.8,027.5,008.7,0000.0,0009.55,0003.30,0002.27
2024-04-15 05:45:00,SystemResetWarning,0821.3,5.00,000.00,025.7,025.1,000.0,033.9,027.6,008.6,0000.0,0009.36,0003.27,0002.27
2024-04-15 05:46:00,SystemResetWarning,0821.3,4.99,000.00,025.7,025.1,000.0,033.9,027.6,008.5,0000.0,0008.74,0003.25,0002.25
2024-04-15 05:47:00,SystemResetWarning,0821.3,4.99,000.00,025.7,025.2,000.0,033.9,027.6,009.0,0000.0,0007.85,0003.23,0002.25
2024-04-15 05:48:00,SystemResetWarning,0821.3,4.99,000.00,025.8,025.2,000.0,033.9,027.6,009.1,0000.0,0007.92,0003.24,0002.24
2024-04-15 05:49:00,SystemResetWarning,0821.4,5.00,000.00,025.8,025.2,000.0,034.0,027.7,009.1,0000.0,0007.91,0003.26,0002.24
2024-04-15 05:50:00,SystemResetWarning,0821.3,5.00,000.00,025.8,025.3,000.0,034.0,027.7,008.9,0000.0,0008.13,0003.26,0002.25
2024-04-15 05:51:00,SystemResetWarning,0821.3,5.00,000.00,025.8,025.3,000.0,034.0,027.7,009.0,0000.0,0008.72,0003.30,0002.23
2024-04-15 05:52:00,SystemResetWarning,0821.3,5.00,000.00,025.9,025.3,000.0,034.0,027.7,008.9,0000.0,0009.06,0003.31,0002.22
2024-04-15 05:53:00,SystemResetWarning,0821.3,5.01,000.00,025.9,025.3,000.0,034.1,027.7,008.8,0000.0,0009.50,0003.32,0002.22
2024-04-15 05:54:00,SystemResetWarning,0821.3,5.01,000.00,025.9,025.3,000.0,034.1,027.8,008.8,0000.0,0009.48,0003.35,0002.21
2024-04-15 05:55:00,SystemResetWarning,0821.3,5.00,000.00,025.9,025.3,000.0,034.1,027.8,008.7,0000.0,0009.40,0003.34,0002.20
2024-04-15 05:56:00,SystemResetWarning,0821.3,5.00,000.00,026.0,025.3,000.0,034.1,027.8,008.7,0000.0,0009.36,0003.35,0002.19
2024-04-15 05:57:00,SystemResetWarning,0821.3,5.00,000.00,026.0,025.4,000.0,034.2,027.8,008.5,0000.0,0009.83,0003.36,0002.19
2024-04-15 05:58:00,SystemResetWarning,0821.3,5.00,000.00,026.0,025.3,000.0,034.2,027.8,008.5,0000.0,0009.64,0003.38,0002.18
2024-04-15 05:59:00,SystemResetWarning,0821.2,4.98,000.00,025.8,023.5,000.0,034.3,026.7,008.4,0000.0,0009.05,0003.37,0002.18
